This is the latest recevied weather packets stored in our database for station/object EUGENE. If no packets are shown the sender has not sent any weather packets the latest 10 day(s).
| Time | Temp. | Humidity | Pressure | Rain* | Wind** | Luminosity | Snow |
|---|---|---|---|---|---|---|---|
| 1777788728 | 13.33° C | 92% | 1011.8 hPa | 0 mm | - | - | - |
| 1777787827 | 13.33° C | 91% | 1011.6 hPa | 0 mm | - | - | - |
| 1777786928 | 13.33° C | 91% | 1011.8 hPa | 0 mm | - | - | - |
| 1777786027 | 13.89° C | 90% | 1011.9 hPa | 0 mm | - | - | - |
| 1777785128 | 13.89° C | 89% | 1012.1 hPa | 0 mm | - | - | - |
| 1777784227 | 14.44° C | 90% | 1012.2 hPa | 0 mm | - | - | - |
| 1777783327 | 14.44° C | 88% | 1012.1 hPa | 0 mm | - | - | - |
| 1777782427 | 14.44° C | 87% | 1011.9 hPa | 0 mm | - | - | - |
| 1777781528 | 15° C | 86% | 1011.6 hPa | 0 mm | - | - | - |
| 1777780627 | 15° C | 84% | 1011.5 hPa | 0 mm | - | - | - |
| 1777779727 | 15.56° C | 83% | 1011.3 hPa | 0 mm | - | - | - |
| 1777778827 | 16.67° C | 80% | 1011.4 hPa | 0 mm | - | - | - |
| 1777777927 | 16.67° C | 79% | 1011.4 hPa | 0 mm | - | - | - |
| 1777777027 | 17.22° C | 77% | 1011.3 hPa | 0 mm | - | - | - |
| 1777776127 | 17.78° C | 76% | 1011.3 hPa | 0 mm | - | - | - |
| 1777775227 | 18.89° C | 75% | 1011.4 hPa | 0 mm | - | - | - |
| 1777774327 | 19.44° C | 74% | 1011.5 hPa | 0 mm | - | - | - |
| 1777773427 | 20° C | 73% | 1011.5 hPa | 0 mm | - | - | - |
| 1777772527 | 20° C | 71% | 1011.7 hPa | 0 mm | - | - | - |
| 1777771627 | 20° C | 70% | 1011.5 hPa | 0 mm | - | - | - |
| 1777770728 | 20.56° C | 70% | 1011.7 hPa | 0 mm | - | - | - |
| 1777769827 | 20° C | 70% | 1012.1 hPa | 0 mm | - | - | - |
| 1777768927 | 20.56° C | 70% | 1011.6 hPa | 0 mm | - | - | - |
| 1777768027 | 20.56° C | 71% | 1011.4 hPa | 0 mm | - | - | - |
| 1777767127 | 19.44° C | 71% | 1011.4 hPa | 0 mm | - | - | - |
* Rain latest hour (hover to see other rain measurements)
** Current wind speed in m/s (hover to see current wind gust speed)